一网星座-0642星 (ONEWEB-0642)

导读

ONEWEB-0642是英国OneWeb卫星星座的第二代卫星,于2023年3月9日发射入轨。该卫星属于低轨通信卫星,运行于约1200公里高度近地轨道,单颗重约147.5kg,采用Ku/Ka波段提供通信服务,配备太阳能供电与氙气电推进系统,设计寿命约5年。它是OneWeb全球卫星互联网星座的组成部分,旨在为全球尤其是偏远地区提供宽带互联网接入服务,推动全球无缝网络覆盖建设。

基本信息
目录编号:
55806
目录名称:
ONEWEB-0642
国际标识:
2023-029L
轨道中心:
EARTH
卫星名称:
一网星座-0642星
卫星全名:
一网星座-0642星 (ONEWEB-0642)
卫星状态:
在轨 (已飞行1196 天)
发射日期:
2023-03-09 UTC
国别 :
英国 (GB)
星等 :
--
轨道信息
数据来源 国际轨道数据 AOE轨道数据
星历时间 2026-06-17T17:38:12+0800
14小时前
查看轨道信息
2026-06-17T07:00:00+0800
1天前
查看轨道信息
半长轴 7563.908km 7563.913km
偏心率 0.0001595 0.00009
轨道倾角 87.917° 87.920°
近地点辐角 126.119° 125.347°
升交点赤经 304.934° 305.022°
平近点角 234.009° 290.380°
近地点 1184.564km 1185.095km
远地点 1186.978km 1186.457km
周期 109.114分钟 109.114分钟
每日圈数 13.197251 13.197236
详细信息
平衡模式:
三轴稳定
覆盖范围:
全球
运营商:
一网卫星公司
运营商所在国:
英国
制造商(研发单位):
一网卫星公司
制造商所在国:
英国
使用方式:
暂无
卫星简介
OneWeb卫星网络由648颗重约125公斤的微型卫星组成,运行在1200公里的轨道上。 每颗卫星都能够提供至少每秒8千兆位的吞吐量,以使用其高吞吐量的Ku频段有效载荷为家庭和移动平台提供互联网接入。该卫星仍在工作。
2D轨道图
3D轨道图
轨道高度分析图
轨道倾角分析图
轨道综合分析图
查看轨道综合分析图